| time (UTC) | temp F | wind direction | speed knots | gust knots | rain 1hr in | rain 24hr in | rain mn in | humidity % | barometer mb |
| 20260903073416 | 74 | 179 | 0.0 | 1.7 | 0.00 | 0.00 | 0.00 | 84 | 1013.9 |
| 20260903072912 | 73 | 230 | 0.0 | 2.6 | 0.00 | 0.00 | 0.00 | 84 | 1014.0 |
| 20260903072408 | 73 | 246 | 0.0 | 1.7 | 0.00 | 0.00 | 0.00 | 84 | 1014.0 |
| 20260903071905 | 73 | 157 | 0.9 | 1.7 | 0.00 | 0.00 | 0.00 | 84 | 1014.1 |
| 20260903071401 | 74 | 32 | 0.0 | 0.0 | 0.00 | 0.00 | 0.00 | 84 | 1013.8 |
| 20260903070856 | 74 | 215 | 0.0 | 1.7 | 0.00 | 0.00 | 0.00 | 84 | 1013.6 |
| 20260903070351 | 74 | 196 | 0.0 | 2.6 | 0.00 | 0.00 | 0.00 | 84 | 1013.3 |
| 20260903065846 | 74 | 154 | 0.0 | 1.7 | 0.00 | 0.00 | 0.00 | 84 | 1013.5 |
| 20260903065345 | 73 | 210 | 0.0 | 1.7 | 0.00 | 0.00 | 0.00 | 85 | 1013.8 |
| 20260903064844 | 73 | 229 | 0.9 | 2.6 | 0.00 | 0.00 | 0.00 | 85 | 1013.9 |
| 20260903064340 | 74 | 187 | 0.0 | 0.9 | 0.00 | 0.00 | 0.00 | 85 | 1014.1 |
| 20260903063836 | 74 | 235 | 0.0 | 0.9 | 0.00 | 0.00 | 0.00 | 84 | 1014.1 |
| 20260903063325 | 74 | 205 | 0.0 | 0.0 | 0.00 | 0.00 | 0.00 | 83 | 1014.1 |
| 20260903062820 | 75 | 217 | 0.0 | 0.0 | 0.00 | 0.00 | 0.00 | 82 | 1014.3 |
| 20260903062320 | 75 | 217 | 0.0 | 0.0 | 0.00 | 0.00 | 0.00 | 81 | 1014.3 |
| 20260903061817 | 75 | 230 | 0.0 | 0.9 | 0.00 | 0.00 | 0.00 | 80 | 1014.4 |
| 20260903061310 | 76 | 230 | 0.0 | 0.9 | 0.00 | 0.00 | 0.00 | 79 | 1014.6 |
| 20260903060806 | 76 | 333 | 0.0 | 4.3 | 0.00 | 0.00 | 0.00 | 78 | 1014.5 |
| 20260903060305 | 76 | 356 | 1.7 | 2.6 | 0.00 | 0.00 | 0.00 | 78 | 1014.6 |
| 20260903055803 | 76 | 314 | 0.9 | 2.6 | 0.00 | 0.00 | 0.00 | 78 | 1014.6 |
| 20260903055306 | 76 | 312 | 2.6 | 4.3 | 0.00 | 0.00 | 0.00 | 79 | 1014.8 |
| 20260903054756 | 77 | 190 | 0.0 | 2.6 | 0.00 | 0.00 | 0.00 | 79 | 1014.9 |
| 20260903054251 | 76 | 331 | 3.5 | 4.3 | 0.00 | 0.00 | 0.00 | 80 | 1014.9 |
| 20260903053748 | 77 | 329 | 2.6 | 3.5 | 0.00 | 0.00 | 0.00 | 81 | 1015.0 |
| 20260903053248 | 77 | 344 | 6.1 | 9.6 | 0.00 | 0.00 | 0.00 | 80 | 1015.2 |
| 20260903052738 | 78 | 356 | 3.5 | 9.6 | 0.00 | 0.00 | 0.00 | 79 | 1015.1 |
| 20260903052234 | 80 | 344 | 4.3 | 13.0 | 0.00 | 0.00 | 0.00 | 78 | 1014.9 |
| 20260903051728 | 82 | 10 | 3.5 | 13.0 | 0.00 | 0.00 | 0.00 | 79 | 1014.7 |
| 20260903051225 | 82 | 240 | 0.0 | 3.5 | 0.00 | 0.00 | 0.00 | 81 | 1013.6 |
| 20260903050720 | 82 | 221 | 1.7 | 1.7 | 0.00 | 0.00 | 0.00 | 81 | 1013.5 |
| 20260903050219 | 82 | 156 | 0.0 | 3.5 | 0.00 | 0.00 | 0.00 | 80 | 1013.5 |
| 20260903045719 | 82 | 172 | 0.9 | 2.6 | 0.00 | 0.00 | 0.00 | 80 | 1013.2 |
| 20260903045215 | 82 | 222 | 0.9 | 3.5 | 0.00 | 0.00 | 0.00 | 80 | 1013.2 |
| 20260903044711 | 82 | 222 | 2.6 | 3.5 | 0.00 | 0.00 | 0.00 | 80 | 1013.2 |
| 20260903044206 | 82 | 234 | 0.0 | 5.2 | 0.00 | 0.00 | 0.00 | 80 | 1012.9 |
| 20260903043703 | 82 | 259 | 1.7 | 2.6 | 0.00 | 0.00 | 0.00 | 80 | 1013.0 |
| 20260903043202 | 82 | 225 | 1.7 | 2.6 | 0.00 | 0.00 | 0.00 | 80 | 1013.1 |
| 20260903042702 | 82 | 236 | 0.9 | 2.6 | 0.00 | 0.00 | 0.00 | 80 | 1012.9 |
| 20260903042157 | 82 | 228 | 0.0 | 1.7 | 0.00 | 0.00 | 0.00 | 80 | 1012.8 |
| 20260903041654 | 81 | 231 | 0.0 | 2.6 | 0.00 | 0.00 | 0.00 | 80 | 1013.0 |
| 20260903041149 | 82 | 218 | 0.9 | 2.6 | 0.00 | 0.00 | 0.00 | 80 | 1012.8 |
| 20260903040648 | 81 | 238 | 2.6 | 6.1 | 0.00 | 0.00 | 0.00 | 80 | 1012.8 |
| 20260903040144 | 81 | 233 | 0.9 | 2.6 | 0.00 | 0.00 | 0.00 | 81 | 1012.6 |
| 20260903035640 | 81 | 202 | 0.0 | 2.6 | 0.00 | 0.00 | 0.00 | 81 | 1012.3 |
| 20260903035136 | 80 | 321 | 0.0 | 1.7 | 0.00 | 0.00 | 0.00 | 82 | 1012.5 |
| 20260903034630 | 80 | 187 | 0.0 | 1.7 | 0.00 | 0.00 | 0.00 | 82 | 1012.4 |
| 20260903034125 | 80 | 125 | 0.9 | 2.6 | 0.00 | 0.00 | 0.00 | 81 | 1012.3 |
| 20260903033621 | 80 | 195 | 0.0 | 2.6 | 0.00 | 0.00 | 0.00 | 81 | 1012.1 |
| 20260903033120 | 80 | 209 | 0.9 | 1.7 | 0.00 | 0.00 | 0.00 | 82 | 1012.2 |
| 20260903032616 | 80 | 164 | 0.0 | 2.6 | 0.00 | 0.00 | 0.00 | 81 | 1011.9 |
| 20260903032111 | 81 | 217 | 1.7 | 2.6 | 0.00 | 0.00 | 0.00 | 81 | 1012.0 |
| 20260903031606 | 81 | 141 | 1.7 | 2.6 | 0.00 | 0.00 | 0.00 | 80 | 1011.8 |
| 20260903031101 | 81 | 139 | 2.6 | 6.1 | 0.00 | 0.00 | 0.00 | 80 | 1012.0 |
| 20260903030556 | 81 | 205 | 0.0 | 1.7 | 0.00 | 0.00 | 0.00 | 80 | 1012.0 |
| 20260903030052 | 81 | 127 | 0.9 | 2.6 | 0.00 | 0.00 | 0.00 | 80 | 1012.4 |
| 20260903025547 | 81 | 155 | 1.7 | 3.5 | 0.00 | 0.00 | 0.00 | 80 | 1012.3 |
| 20260903025043 | 81 | 139 | 0.0 | 1.7 | 0.00 | 0.00 | 0.00 | 80 | 1012.6 |
| 20260903024543 | 81 | 195 | 0.0 | 3.5 | 0.00 | 0.00 | 0.00 | 80 | 1012.6 |
| 20260903024037 | 81 | 227 | 0.0 | 1.7 | 0.00 | 0.00 | 0.00 | 80 | 1012.7 |
| 20260903023533 | 81 | 217 | 0.0 | 3.5 | 0.00 | 0.00 | 0.00 | 79 | 1012.9 |
| 20260903023028 | 81 | 173 | 0.0 | 2.6 | 0.00 | 0.00 | 0.00 | 79 | 1012.8 |
| 20260903022527 | 81 | 160 | 0.0 | 1.7 | 0.00 | 0.00 | 0.00 | 79 | 1012.9 |
| 20260903022026 | 82 | 230 | 0.0 | 1.7 | 0.00 | 0.00 | 0.00 | 79 | 1013.0 |
| 20260903021521 | 82 | 186 | 0.0 | 1.7 | 0.00 | 0.00 | 0.00 | 79 | 1012.9 |
| 20260903021016 | 82 | 217 | 0.0 | 2.6 | 0.00 | 0.00 | 0.00 | 79 | 1012.8 |
| 20260903020512 | 82 | 215 | 0.0 | 1.7 | 0.00 | 0.00 | 0.00 | 79 | 1013.0 |
| 20260903020011 | 82 | 224 | 0.0 | 0.9 | 0.00 | 0.00 | 0.00 | 79 | 1013.0 |
| 20260903015507 | 82 | 229 | 0.0 | 1.7 | 0.00 | 0.00 | 0.00 | 79 | 1013.0 |
| 20260903015002 | 82 | 157 | 0.0 | 1.7 | 0.00 | 0.00 | 0.00 | 79 | 1013.0 |
| 20260903014502 | 82 | 235 | 0.0 | 0.9 | 0.00 | 0.00 | 0.00 | 78 | 1013.1 |
| 20260903013956 | 82 | 230 | 0.0 | 1.7 | 0.00 | 0.00 | 0.00 | 78 | 1013.2 |
| 20260903013451 | 82 | 230 | 0.0 | 1.7 | 0.00 | 0.00 | 0.00 | 78 | 1013.2 |
| 20260903012950 | 82 | 287 | 0.0 | 1.7 | 0.00 | 0.00 | 0.00 | 78 | 1013.2 |
| 20260903012450 | 82 | 287 | 0.0 | 2.6 | 0.00 | 0.00 | 0.00 | 78 | 1013.3 |
| 20260903011948 | 82 | 242 | 0.0 | 2.6 | 0.00 | 0.00 | 0.00 | 78 | 1013.2 |
| 20260903011443 | 82 | 220 | 0.0 | 1.7 | 0.00 | 0.00 | 0.00 | 79 | 1013.0 |
| 20260903010939 | 82 | 230 | 0.0 | 2.6 | 0.00 | 0.00 | 0.00 | 79 | 1012.8 |
| 20260903010434 | 82 | 230 | 0.0 | 1.7 | 0.00 | 0.00 | 0.00 | 79 | 1012.9 |
| 20260903005931 | 82 | 180 | 0.0 | 2.6 | 0.00 | 0.00 | 0.00 | 79 | 1012.8 |
| 20260903005426 | 82 | 201 | 0.0 | 2.6 | 0.00 | 0.00 | 0.00 | 79 | 1012.9 |
| 20260903004923 | 82 | 224 | 0.0 | 0.9 | 0.00 | 0.00 | 0.00 | 79 | 1012.8 |
| 20260903004418 | 82 | 212 | 0.0 | 1.7 | 0.00 | 0.00 | 0.00 | 79 | 1012.8 |
| 20260903003913 | 83 | 205 | 0.0 | 0.9 | 0.00 | 0.00 | 0.00 | 79 | 1012.8 |
| 20260903003408 | 83 | 205 | 0.0 | 0.0 | 0.00 | 0.00 | 0.00 | 78 | 1012.8 |
| 20260903002908 | 83 | 230 | 0.0 | 0.9 | 0.00 | 0.00 | 0.00 | 78 | 1013.0 |
| 20260903002403 | 83 | 242 | 0.0 | 0.0 | 0.00 | 0.00 | 0.00 | 77 | 1012.8 |
| 20260903001902 | 83 | 224 | 0.0 | 0.0 | 0.00 | 0.00 | 0.00 | 77 | 1012.9 |
| 20260903001357 | 84 | 230 | 0.0 | 0.0 | 0.00 | 0.00 | 0.00 | 76 | 1012.7 |
| 20260903000857 | 84 | 230 | 0.0 | 0.9 | 0.00 | 0.00 | 0.00 | 76 | 1012.9 |
| 20260903000355 | 84 | 242 | 0.0 | 0.0 | 0.00 | 0.00 | 0.00 | 75 | 1013.0 |
| 20260902235851 | 85 | 229 | 0.0 | 0.0 | 0.00 | 0.00 | 0.00 | 74 | 1012.9 |
| 20260902235346 | 85 | 229 | 0.0 | 0.9 | 0.00 | 0.00 | 0.00 | 73 | 1012.9 |
| 20260902234845 | 85 | 205 | 0.0 | 0.0 | 0.00 | 0.00 | 0.00 | 73 | 1013.0 |
| 20260902234345 | 86 | 269 | 0.0 | 0.9 | 0.00 | 0.00 | 0.00 | 72 | 1012.9 |
| 20260902233844 | 86 | 206 | 0.0 | 1.7 | 0.00 | 0.00 | 0.00 | 71 | 1012.9 |
| 20260902233340 | 86 | 157 | 0.0 | 1.7 | 0.00 | 0.00 | 0.00 | 71 | 1013.1 |
| 20260902232838 | 87 | 205 | 0.0 | 2.6 | 0.00 | 0.00 | 0.00 | 70 | 1012.9 |
| 20260902232332 | 87 | 206 | 1.7 | 1.7 | 0.00 | 0.00 | 0.00 | 70 | 1012.9 |
| 20260902231826 | 87 | 207 | 0.9 | 1.7 | 0.00 | 0.00 | 0.00 | 69 | 1012.8 |
| 20260902231321 | 87 | 220 | 0.0 | 2.6 | 0.00 | 0.00 | 0.00 | 70 | 1012.8 |
| 20260902230817 | 87 | 230 | 0.0 | 1.7 | 0.00 | 0.00 | 0.00 | 69 | 1012.8 |
| 20260902230315 | 88 | 217 | 0.9 | 3.5 | 0.00 | 0.00 | 0.00 | 69 | 1012.8 |
| 20260902225810 | 88 | 230 | 0.0 | 1.7 | 0.00 | 0.00 | 0.00 | 69 | 1012.6 |
| 20260902225300 | 88 | 153 | 0.9 | 2.6 | 0.00 | 0.00 | 0.00 | 67 | 1012.7 |
| 20260902224759 | 88 | 256 | 1.7 | 2.6 | 0.00 | 0.00 | 0.00 | 68 | 1012.8 |
| 20260902224254 | 88 | 187 | 0.0 | 1.7 | 0.00 | 0.00 | 0.00 | 67 | 1012.7 |
| 20260902223750 | 89 | 186 | 0.0 | 2.6 | 0.00 | 0.00 | 0.00 | 68 | 1012.8 |
| 20260902223249 | 89 | 199 | 0.0 | 2.6 | 0.00 | 0.00 | 0.00 | 68 | 1012.8 |
| 20260902222748 | 89 | 202 | 0.0 | 2.6 | 0.00 | 0.00 | 0.00 | 68 | 1012.9 |
| 20260902222243 | 89 | 225 | 0.9 | 2.6 | 0.00 | 0.00 | 0.00 | 67 | 1012.7 |
| 20260902221742 | 90 | 200 | 0.0 | 2.6 | 0.00 | 0.00 | 0.00 | 66 | 1012.8 |
| 20260902221242 | 90 | 245 | 0.0 | 5.2 | 0.00 | 0.00 | 0.00 | 65 | 1012.7 |
| 20260902220738 | 90 | 228 | 0.0 | 3.5 | 0.00 | 0.00 | 0.00 | 64 | 1012.8 |
| 20260902220237 | 90 | 233 | 0.0 | 2.6 | 0.00 | 0.00 | 0.00 | 65 | 1012.8 |
| 20260902215733 | 90 | 162 | 0.0 | 7.0 | 0.00 | 0.00 | 0.00 | 63 | 1012.6 |
| 20260902215228 | 91 | 222 | 0.9 | 3.5 | 0.00 | 0.00 | 0.00 | 62 | 1012.8 |
| 20260902214724 | 91 | 212 | 1.7 | 4.3 | 0.00 | 0.00 | 0.00 | 63 | 1012.7 |
| 20260902214222 | 91 | 226 | 1.7 | 2.6 | 0.00 | 0.00 | 0.00 | 62 | 1012.8 |
| 20260902213718 | 91 | 223 | 1.7 | 3.5 | 0.00 | 0.00 | 0.00 | 61 | 1012.7 |
| 20260902213218 | 91 | 216 | 2.6 | 9.6 | 0.00 | 0.00 | 0.00 | 60 | 1012.9 |
| 20260902212718 | 92 | 214 | 1.7 | 5.2 | 0.00 | 0.00 | 0.00 | 59 | 1012.8 |
| 20260902212215 | 92 | 220 | 1.7 | 6.1 | 0.00 | 0.00 | 0.00 | 58 | 1013.0 |
| 20260902211711 | 92 | 237 | 0.0 | 7.0 | 0.00 | 0.00 | 0.00 | 59 | 1013.0 |
| 20260902211206 | 92 | 209 | 3.5 | 5.2 | 0.00 | 0.00 | 0.00 | 61 | 1013.0 |
| 20260902210706 | 92 | 221 | 1.7 | 4.3 | 0.00 | 0.00 | 0.00 | 61 | 1013.0 |
| 20260902210201 | 92 | 240 | 1.7 | 4.3 | 0.00 | 0.00 | 0.00 | 62 | 1013.1 |
| 20260902205659 | 92 | 216 | 2.6 | 5.2 | 0.00 | 0.00 | 0.00 | 61 | 1013.0 |
| 20260902205155 | 93 | 246 | 2.6 | 6.1 | 0.00 | 0.00 | 0.00 | 60 | 1013.1 |
| 20260902204650 | 93 | 234 | 1.7 | 4.3 | 0.00 | 0.00 | 0.00 | 59 | 1013.2 |
| 20260902204149 | 93 | 65 | 2.6 | 7.8 | 0.00 | 0.00 | 0.00 | 59 | 1013.3 |
| 20260902203646 | 93 | 216 | 0.0 | 3.5 | 0.00 | 0.00 | 0.00 | 59 | 1013.3 |
| 20260902203146 | 93 | 214 | 2.6 | 4.3 | 0.00 | 0.00 | 0.00 | 59 | 1013.2 |
| 20260902202641 | 93 | 216 | 0.0 | 3.5 | 0.00 | 0.00 | 0.00 | 59 | 1013.6 |
| 20260902202137 | 93 | 243 | 3.5 | 4.3 | 0.00 | 0.00 | 0.00 | 59 | 1013.5 |
| 20260902201633 | 93 | 146 | 1.7 | 5.2 | 0.00 | 0.00 | 0.00 | 60 | 1013.6 |
| 20260902201132 | 93 | 263 | 3.5 | 7.0 | 0.00 | 0.00 | 0.00 | 59 | 1013.5 |
| 20260902200627 | 92 | 220 | 0.9 | 4.3 | 0.00 | 0.00 | 0.00 | 60 | 1013.6 |
| 20260902200124 | 93 | 242 | 1.7 | 6.1 | 0.00 | 0.00 | 0.00 | 62 | 1013.7 |
| 20260902195619 | 93 | 222 | 1.7 | 2.6 | 0.00 | 0.00 | 0.00 | 61 | 1013.8 |
| 20260902195118 | 93 | 229 | 3.5 | 6.1 | 0.00 | 0.00 | 0.00 | 60 | 1013.9 |
| 20260902194617 | 93 | 121 | 2.6 | 3.5 | 0.00 | 0.00 | 0.00 | 63 | 1013.8 |
| 20260902194113 | 93 | 205 | 2.6 | 2.6 | 0.00 | 0.00 | 0.00 | 62 | 1013.9 |
| 20260902193609 | 93 | 214 | 2.6 | 3.5 | 0.00 | 0.00 | 0.00 | 63 | 1014.0 |
| 20260902193108 | 93 | 205 | 2.6 | 4.3 | 0.00 | 0.00 | 0.00 | 63 | 1013.9 |
| 20260902192607 | 93 | 208 | 1.7 | 2.6 | 0.00 | 0.00 | 0.00 | 64 | 1014.1 |
| 20260902192101 | 93 | 224 | 2.6 | 3.5 | 0.00 | 0.00 | 0.00 | 63 | 1013.9 |
| 20260902191556 | 93 | 233 | 1.7 | 4.3 | 0.00 | 0.00 | 0.00 | 65 | 1013.9 |
| 20260902191055 | 93 | 184 | 1.7 | 3.5 | 0.00 | 0.00 | 0.00 | 65 | 1014.1 |
| 20260902190551 | 94 | 170 | 2.6 | 4.3 | 0.00 | 0.00 | 0.00 | 62 | 1014.2 |
| 20260902190046 | 94 | 233 | 1.7 | 3.5 | 0.00 | 0.00 | 0.00 | 63 | 1014.2 |
| 20260902185542 | 94 | 219 | 1.7 | 6.1 | 0.00 | 0.00 | 0.00 | 61 | 1014.2 |
| 20260902185038 | 94 | 222 | 1.7 | 3.5 | 0.00 | 0.00 | 0.00 | 61 | 1014.3 |
| 20260902184532 | 94 | 171 | 1.7 | 5.2 | 0.00 | 0.00 | 0.00 | 63 | 1014.1 |
| 20260902184028 | 94 | 215 | 0.9 | 4.3 | 0.00 | 0.00 | 0.00 | 58 | 1014.4 |
| 20260902183524 | 93 | 255 | 1.7 | 5.2 | 0.00 | 0.00 | 0.00 | 62 | 1014.4 |
| 20260902183020 | 94 | 221 | 1.7 | 3.5 | 0.00 | 0.00 | 0.00 | 60 | 1014.5 |
| 20260902182516 | 94 | 228 | 2.6 | 5.2 | 0.00 | 0.00 | 0.00 | 61 | 1014.5 |
| 20260902182012 | 94 | 218 | 0.9 | 3.5 | 0.00 | 0.00 | 0.00 | 61 | 1014.7 |
| 20260902181508 | 93 | 330 | 1.7 | 2.6 | 0.00 | 0.00 | 0.00 | 65 | 1014.6 |
| 20260902181002 | 93 | 187 | 1.7 | 3.5 | 0.00 | 0.00 | 0.00 | 63 | 1014.7 |
| 20260902180502 | 93 | 214 | 1.7 | 2.6 | 0.00 | 0.00 | 0.00 | 62 | 1014.6 |
| 20260902175958 | 93 | 222 | 3.5 | 4.3 | 0.00 | 0.00 | 0.00 | 62 | 1014.7 |
| 20260902175458 | 92 | 321 | 0.0 | 3.5 | 0.00 | 0.00 | 0.00 | 64 | 1014.6 |
| 20260902174954 | 94 | 213 | 4.3 | 5.2 | 0.00 | 0.00 | 0.00 | 63 | 1015.0 |
| 20260902174451 | 93 | 207 | 2.6 | 4.3 | 0.00 | 0.00 | 0.00 | 64 | 1014.8 |
| 20260902173946 | 93 | 22 | 0.0 | 2.6 | 0.00 | 0.00 | 0.00 | 63 | 1014.8 |
| 20260902173445 | 93 | 210 | 0.9 | 2.6 | 0.00 | 0.00 | 0.00 | 64 | 1014.8 |
| 20260902172941 | 92 | 224 | 0.9 | 4.3 | 0.00 | 0.00 | 0.00 | 65 | 1015.0 |
| 20260902172440 | 93 | 224 | 0.0 | 2.6 | 0.00 | 0.00 | 0.00 | 59 | 1015.1 |
| 20260902171935 | 93 | 197 | 0.9 | 6.1 | 0.00 | 0.00 | 0.00 | 59 | 1015.1 |
| 20260902171430 | 92 | 225 | 2.6 | 3.5 | 0.00 | 0.00 | 0.00 | 61 | 1015.3 |
| 20260902170927 | 92 | 238 | 1.7 | 3.5 | 0.00 | 0.00 | 0.00 | 60 | 1015.4 |
| 20260902170421 | 92 | 225 | 0.9 | 2.6 | 0.00 | 0.00 | 0.00 | 59 | 1015.4 |
| 20260902165917 | 91 | 196 | 0.0 | 4.3 | 0.00 | 0.00 | 0.00 | 62 | 1015.5 |
| 20260902165416 | 91 | 285 | 0.9 | 2.6 | 0.00 | 0.00 | 0.00 | 61 | 1015.6 |
| 20260902164911 | 92 | 234 | 0.9 | 2.6 | 0.00 | 0.00 | 0.00 | 58 | 1015.4 |
| 20260902164406 | 92 | 198 | 0.9 | 3.5 | 0.00 | 0.00 | 0.00 | 60 | 1015.6 |
| 20260902163906 | 92 | 227 | 2.6 | 5.2 | 0.00 | 0.00 | 0.00 | 60 | 1015.5 |
| 20260902163400 | 91 | 175 | 0.0 | 3.5 | 0.00 | 0.00 | 0.00 | 66 | 1015.5 |
| 20260902162858 | 92 | 234 | 2.6 | 5.2 | 0.00 | 0.00 | 0.00 | 59 | 1015.5 |
| 20260902162354 | 93 | 220 | 1.7 | 2.6 | 0.00 | 0.00 | 0.00 | 61 | 1015.4 |
| 20260902161854 | 93 | 215 | 1.7 | 3.5 | 0.00 | 0.00 | 0.00 | 57 | 1015.5 |
| 20260902161349 | 93 | 220 | 0.9 | 4.3 | 0.00 | 0.00 | 0.00 | 61 | 1015.5 |
| 20260902160845 | 92 | 225 | 0.0 | 2.6 | 0.00 | 0.00 | 0.00 | 65 | 1015.6 |
| 20260902160341 | 93 | 201 | 0.9 | 1.7 | 0.00 | 0.00 | 0.00 | 63 | 1015.7 |
| 20260902155838 | 92 | 141 | 0.0 | 2.6 | 0.00 | 0.00 | 0.00 | 66 | 1015.7 |
| 20260902155337 | 90 | 221 | 0.0 | 4.3 | 0.00 | 0.00 | 0.00 | 67 | 1015.6 |
| 20260902154832 | 91 | 229 | 1.7 | 3.5 | 0.00 | 0.00 | 0.00 | 64 | 1015.7 |
| 20260902154329 | 91 | 281 | 0.0 | 3.5 | 0.00 | 0.00 | 0.00 | 64 | 1015.7 |
| 20260902153827 | 91 | 129 | 0.0 | 3.5 | 0.00 | 0.00 | 0.00 | 68 | 1015.8 |
| 20260902153326 | 91 | 166 | 0.0 | 2.6 | 0.00 | 0.00 | 0.00 | 68 | 1015.7 |
| 20260902152823 | 90 | 208 | 0.0 | 2.6 | 0.00 | 0.00 | 0.00 | 66 | 1015.9 |
| 20260902152318 | 90 | 226 | 0.0 | 4.3 | 0.00 | 0.00 | 0.00 | 68 | 1015.8 |
| 20260902151814 | 90 | 246 | 2.6 | 3.5 | 0.00 | 0.00 | 0.00 | 67 | 1015.8 |
| 20260902151309 | 89 | 343 | 0.0 | 4.3 | 0.00 | 0.00 | 0.00 | 68 | 1015.8 |
| 20260902150803 | 89 | 180 | 0.0 | 5.2 | 0.00 | 0.00 | 0.00 | 71 | 1015.6 |
| 20260902150300 | 89 | 252 | 0.9 | 1.7 | 0.00 | 0.00 | 0.00 | 73 | 1015.8 |
| 20260902145759 | 88 | 154 | 0.9 | 2.6 | 0.00 | 0.00 | 0.00 | 72 | 1015.8 |
| 20260902145254 | 88 | 212 | 0.9 | 2.6 | 0.00 | 0.00 | 0.00 | 74 | 1015.7 |
| 20260902144749 | 88 | 225 | 1.7 | 2.6 | 0.00 | 0.00 | 0.00 | 72 | 1015.8 |
| 20260902144245 | 87 | 116 | 0.0 | 1.7 | 0.00 | 0.00 | 0.00 | 73 | 1015.9 |
| 20260902143740 | 87 | 224 | 0.0 | 1.7 | 0.00 | 0.00 | 0.00 | 75 | 1015.8 |
| 20260902143235 | 86 | 247 | 0.9 | 2.6 | 0.00 | 0.00 | 0.00 | 77 | 1015.7 |
| 20260902142731 | 85 | 211 | 0.0 | 2.6 | 0.00 | 0.00 | 0.00 | 79 | 1015.7 |
| 20260902142227 | 84 | 224 | 0.0 | 2.6 | 0.00 | 0.00 | 0.00 | 80 | 1015.7 |
| 20260902141721 | 83 | 216 | 1.7 | 2.6 | 0.00 | 0.00 | 0.00 | 81 | 1015.8 |
| 20260902141217 | 83 | 138 | 2.6 | 2.6 | 0.00 | 0.00 | 0.00 | 80 | 1015.8 |
| 20260902140712 | 83 | 212 | 1.7 | 4.3 | 0.00 | 0.00 | 0.00 | 79 | 1015.7 |
| 20260902140212 | 83 | 224 | 0.9 | 2.6 | 0.00 | 0.00 | 0.00 | 81 | 1015.6 |
| 20260902135711 | 83 | 15 | 0.0 | 2.6 | 0.00 | 0.00 | 0.00 | 81 | 1015.6 |
| 20260902135208 | 82 | 242 | 0.0 | 4.3 | 0.00 | 0.00 | 0.00 | 82 | 1015.5 |
| 20260902134707 | 82 | 134 | 7.8 | 7.8 | 0.00 | 0.00 | 0.00 | 81 | 1015.4 |
| 20260902134202 | 82 | 199 | 0.9 | 3.5 | 0.00 | 0.00 | 0.00 | 82 | 1015.3 |
| 20260902133657 | 82 | 245 | 0.0 | 1.7 | 0.00 | 0.00 | 0.00 | 83 | 1015.3 |
| 20260902133157 | 82 | 147 | 0.0 | 2.6 | 0.00 | 0.00 | 0.00 | 83 | 1015.3 |
| 20260902132652 | 82 | 124 | 0.0 | 2.6 | 0.00 | 0.00 | 0.00 | 83 | 1015.3 |
| 20260902132147 | 81 | 149 | 2.6 | 3.5 | 0.00 | 0.00 | 0.00 | 83 | 1015.3 |
| 20260902131643 | 81 | 164 | 0.0 | 1.7 | 0.00 | 0.00 | 0.00 | 84 | 1015.4 |
| 20260902131138 | 81 | 211 | 1.7 | 2.6 | 0.00 | 0.00 | 0.00 | 85 | 1015.3 |
| 20260902130634 | 81 | 236 | 1.7 | 1.7 | 0.00 | 0.00 | 0.00 | 85 | 1015.3 |
| 20260902130129 | 81 | 124 | 0.0 | 1.7 | 0.00 | 0.00 | 0.00 | 86 | 1015.3 |
| 20260902125625 | 80 | 220 | 0.0 | 1.7 | 0.00 | 0.00 | 0.00 | 86 | 1015.3 |
| 20260902125120 | 80 | 246 | 0.0 | 1.7 | 0.00 | 0.00 | 0.00 | 86 | 1015.3 |
| 20260902124617 | 80 | 238 | 0.9 | 2.6 | 0.00 | 0.00 | 0.00 | 87 | 1015.4 |
| 20260902124117 | 79 | 256 | 0.0 | 2.6 | 0.00 | 0.00 | 0.00 | 87 | 1015.5 |
| 20260902123613 | 79 | 256 | 0.0 | 0.9 | 0.00 | 0.00 | 0.00 | 88 | 1015.4 |
| 20260902123107 | 79 | 255 | 0.0 | 1.7 | 0.00 | 0.00 | 0.00 | 88 | 1015.3 |
| 20260902122606 | 78 | 209 | 0.9 | 4.3 | 0.00 | 0.00 | 0.00 | 88 | 1015.2 |
| 20260902122103 | 78 | 229 | 0.9 | 2.6 | 0.00 | 0.00 | 0.00 | 89 | 1015.2 |
| 20260902121602 | 78 | 206 | 0.9 | 2.6 | 0.00 | 0.00 | 0.00 | 89 | 1015.6 |
| 20260902121057 | 78 | 224 | 0.0 | 2.6 | 0.00 | 0.00 | 0.00 | 90 | 1015.4 |
| 20260902120553 | 77 | 206 | 1.7 | 2.6 | 0.00 | 0.00 | 0.00 | 91 | 1015.3 |
| 20260902120049 | 77 | 233 | 0.0 | 1.7 | 0.00 | 0.00 | 0.00 | 91 | 1015.2 |
| 20260902115544 | 77 | 274 | 0.9 | 2.6 | 0.00 | 0.00 | 0.00 | 92 | 1015.2 |
| 20260902115041 | 76 | 293 | 0.0 | 1.7 | 0.00 | 0.00 | 0.00 | 92 | 1015.3 |
| 20260902114536 | 76 | 280 | 0.9 | 1.7 | 0.00 | 0.00 | 0.00 | 93 | 1015.3 |
| 20260902114036 | 76 | 351 | 0.0 | 0.9 | 0.00 | 0.00 | 0.00 | 93 | 1015.2 |
| 20260902113532 | 76 | 249 | 0.0 | 1.7 | 0.00 | 0.00 | 0.00 | 93 | 1015.2 |
| 20260902113027 | 76 | 166 | 0.0 | 2.6 | 0.00 | 0.00 | 0.00 | 94 | 1015.0 |
| 20260902112522 | 75 | 255 | 0.0 | 1.7 | 0.00 | 0.00 | 0.00 | 94 | 1015.1 |
| 20260902112019 | 75 | 166 | 0.0 | 0.9 | 0.00 | 0.00 | 0.00 | 94 | 1014.9 |
| 20260902111515 | 75 | 213 | 0.9 | 1.7 | 0.00 | 0.00 | 0.00 | 94 | 1014.8 |
| 20260902111010 | 75 | 205 | 0.0 | 0.0 | 0.00 | 0.00 | 0.00 | 94 | 1014.8 |
| 20260902110506 | 75 | 228 | 0.0 | 1.7 | 0.00 | 0.00 | 0.00 | 94 | 1014.9 |
| 20260902110001 | 75 | 269 | 0.0 | 0.0 | 0.00 | 0.00 | 0.00 | 94 | 1014.7 |
| 20260902105451 | 75 | 168 | 0.0 | 1.7 | 0.00 | 0.00 | 0.00 | 94 | 1014.6 |
| 20260902104950 | 75 | 232 | 0.0 | 2.6 | 0.00 | 0.00 | 0.00 | 94 | 1014.7 |
| 20260902104446 | 75 | 356 | 0.0 | 1.7 | 0.00 | 0.00 | 0.00 | 94 | 1014.6 |
| 20260902103946 | 75 | 211 | 0.9 | 1.7 | 0.00 | 0.00 | 0.00 | 94 | 1014.6 |
| 20260902103442 | 75 | 150 | 0.9 | 2.6 | 0.00 | 0.00 | 0.00 | 94 | 1014.7 |
| 20260902102937 | 75 | 216 | 0.9 | 0.9 | 0.00 | 0.00 | 0.00 | 94 | 1014.6 |
| 20260902102434 | 75 | 214 | 0.9 | 2.6 | 0.00 | 0.00 | 0.00 | 95 | 1014.5 |
| 20260902101930 | 75 | 224 | 0.0 | 2.6 | 0.00 | 0.00 | 0.00 | 95 | 1014.5 |
| 20260902101430 | 75 | 218 | 0.0 | 1.7 | 0.00 | 0.00 | 0.00 | 95 | 1014.7 |
| 20260902100929 | 75 | 202 | 0.0 | 2.6 | 0.00 | 0.00 | 0.00 | 95 | 1014.6 |
| 20260902100424 | 75 | 177 | 0.0 | 3.5 | 0.00 | 0.00 | 0.00 | 95 | 1014.6 |
| 20260902095919 | 75 | 199 | 0.9 | 1.7 | 0.00 | 0.00 | 0.00 | 95 | 1014.7 |
| 20260902095419 | 75 | 205 | 0.0 | 1.7 | 0.00 | 0.00 | 0.00 | 95 | 1014.7 |
| 20260902094918 | 75 | 216 | 0.0 | 1.7 | 0.00 | 0.00 | 0.00 | 95 | 1014.6 |
| 20260902094414 | 75 | 220 | 0.9 | 2.6 | 0.00 | 0.00 | 0.00 | 95 | 1014.7 |
| 20260902093914 | 75 | 309 | 0.0 | 0.9 | 0.00 | 0.00 | 0.00 | 95 | 1014.6 |
| 20260902093409 | 75 | 229 | 0.0 | 1.7 | 0.00 | 0.00 | 0.00 | 95 | 1014.5 |
| 20260902092908 | 75 | 195 | 0.0 | 1.7 | 0.00 | 0.00 | 0.00 | 95 | 1014.7 |
| 20260902092404 | 75 | 172 | 0.0 | 1.7 | 0.00 | 0.00 | 0.00 | 95 | 1014.8 |
| 20260902091904 | 75 | 221 | 0.9 | 2.6 | 0.00 | 0.00 | 0.00 | 95 | 1014.6 |
| 20260902091359 | 75 | 168 | 0.9 | 1.7 | 0.00 | 0.00 | 0.00 | 95 | 1014.8 |
| 20260902090856 | 75 | 245 | 0.0 | 1.7 | 0.00 | 0.00 | 0.00 | 95 | 1014.7 |
| 20260902090356 | 75 | 260 | 0.0 | 0.9 | 0.00 | 0.00 | 0.00 | 95 | 1014.8 |
| 20260902085855 | 75 | 230 | 0.0 | 1.7 | 0.00 | 0.00 | 0.00 | 95 | 1014.6 |
| 20260902085350 | 75 | 193 | 1.7 | 2.6 | 0.00 | 0.00 | 0.00 | 95 | 1014.8 |
| 20260902084845 | 75 | 142 | 0.0 | 2.6 | 0.00 | 0.00 | 0.00 | 95 | 1014.8 |
| 20260902084342 | 75 | 221 | 0.9 | 1.7 | 0.00 | 0.00 | 0.00 | 95 | 1014.9 |
| 20260902083837 | 75 | 229 | 0.0 | 1.7 | 0.00 | 0.00 | 0.00 | 95 | 1015.0 |
| 20260902083337 | 75 | 229 | 0.0 | 1.7 | 0.00 | 0.00 | 0.00 | 95 | 1014.9 |
| 20260902082832 | 75 | 230 | 0.0 | 2.6 | 0.00 | 0.00 | 0.00 | 95 | 1015.0 |
| 20260902082329 | 75 | 195 | 0.0 | 1.7 | 0.00 | 0.00 | 0.00 | 95 | 1014.8 |
| 20260902081825 | 75 | 223 | 0.9 | 1.7 | 0.00 | 0.00 | 0.00 | 95 | 1014.8 |
| 20260902081320 | 75 | 76 | 0.0 | 0.0 | 0.00 | 0.00 | 0.00 | 95 | 1014.8 |
| 20260902080815 | 75 | 242 | 0.0 | 1.7 | 0.00 | 0.00 | 0.00 | 95 | 1014.8 |
| 20260902080312 | 75 | 224 | 0.0 | 0.9 | 0.00 | 0.00 | 0.00 | 95 | 1014.8 |
| 20260902075811 | 75 | 242 | 0.0 | 0.9 | 0.00 | 0.00 | 0.00 | 95 | 1014.6 |
| 20260902075307 | 75 | 202 | 0.0 | 0.0 | 0.00 | 0.00 | 0.00 | 95 | 1014.5 |
| 20260902074808 | 75 | 230 | 0.0 | 1.7 | 0.00 | 0.00 | 0.00 | 95 | 1014.5 |
| 20260902074303 | 75 | 185 | 0.0 | 0.9 | 0.00 | 0.00 | 0.00 | 95 | 1014.5 |
| 20260902073758 | 75 | 167 | 0.0 | 2.6 | 0.00 | 0.00 | 0.00 | 95 | 1014.5 |